FW7300 Weather Reports


Display with metric or nautical units.
time (UTC)temp
F
wind
direction
speed
MPH
gust
MPH
rain 1hr
in
rain 24hr
in
rain mn
in
humidity
%
barometer
mb
20260510111354 49 78 2.0 6.0 0.00 0.07 0.07 99 1009.5
20260510110848 48 91 2.0 6.0 0.00 0.07 0.07 98 1009.3
20260510110346 48 139 0.0 2.0 0.00 0.07 0.07 98 1009.2
20260510105848 48 111 0.0 2.0 0.00 0.07 0.07 98 1009.2
20260510105345 47 111 1.0 4.0 0.00 0.07 0.07 98 1009.0
20260510104844 47 115 2.0 4.0 0.00 0.07 0.07 98 1008.8
20260510104345 46 110 2.0 4.0 0.00 0.07 0.07 98 1008.9
20260510103845 46 153 1.0 3.0 0.00 0.07 0.07 98 1009.1
20260510103344 46 86 1.0 3.0 0.00 0.07 0.07 98 1009.1
20260510102842 46 276 1.0 3.0 0.00 0.07 0.07 98 1008.9
20260510102341 45 256 0.0 2.0 0.00 0.07 0.07 98 1008.7
20260510101841 44 217 0.0 2.0 0.00 0.07 0.07 97 1008.2
20260510101345 44 231 2.0 6.0 0.00 0.07 0.07 96 1008.0
20260510100841 45 141 3.0 6.0 0.00 0.07 0.07 97 1007.9
20260510100340 46 109 2.0 4.0 0.00 0.07 0.07 98 1008.2
20260510095841 45 142 2.0 3.0 0.00 0.07 0.07 98 1008.5
20260510095341 45 138 2.0 3.0 0.00 0.07 0.07 97 1008.5
20260510094841 45 177 2.0 3.0 0.00 0.07 0.07 97 1008.3
20260510094340 46 148 1.0 2.0 0.00 0.07 0.07 98 1008.3
20260510093835 46 195 0.0 2.0 0.00 0.07 0.07 97 1008.4
20260510093328 46 162 0.0 0.0 0.00 0.07 0.07 97 1008.3
20260510092823 46 190 0.0 3.0 0.00 0.07 0.07 97 1008.2
20260510092317 46 190 1.0 3.0 0.00 0.07 0.07 97 1008.1
20260510091811 47 160 0.0 3.0 0.00 0.07 0.07 97 1008.1
20260510091304 47 87 0.0 3.0 0.00 0.07 0.07 97 1008.0
20260510090805 47 75 0.0 2.0 0.00 0.07 0.07 97 1007.9
20260510090303 47 64 1.0 2.0 0.01 0.07 0.07 97 1007.7
20260510085800 47 13 1.0 2.0 0.01 0.07 0.07 96 1007.7
20260510085259 47 133 0.0 2.0 0.01 0.07 0.07 97 1007.7
20260510084259 47 198 0.0 2.0 0.02 0.07 0.07 96 1007.7
20260510083757 48 129 0.0 2.0 0.02 0.07 0.07 96 1007.9
20260510083256 48 129 1.0 2.0 0.02 0.07 0.07 96 1007.8
20260510082757 48 134 1.0 2.0 0.03 0.07 0.07 96 1008.0
20260510081757 49 37 1.0 2.0 0.04 0.07 0.07 95 1008.2
20260510081254 49 65 1.0 2.0 0.05 0.07 0.07 95 1008.2
20260510080753 49 20 1.0 3.0 0.06 0.07 0.07 94 1008.2
20260510080251 50 21 1.0 3.0 0.06 0.06 0.06 94 1008.2
20260510075247 51 32 0.0 1.0 0.06 0.06 0.06 93 1008.1
20260510074745 51 274 1.0 4.0 0.05 0.05 0.05 93 1008.2
20260510074245 51 274 3.0 8.0 0.05 0.05 0.05 92 1008.1
20260510073748 51 236 4.0 10.0 0.05 0.05 0.05 92 1007.8
20260510073248 51 195 4.0 10.0 0.05 0.05 0.05 92 1007.9
20260510072744 51 195 4.0 11.0 0.04 0.04 0.04 92 1008.0
20260510072236 51 234 3.0 11.0 0.04 0.04 0.04 92 1008.0
20260510071730 51 223 4.0 9.0 0.03 0.03 0.03 93 1008.2
20260510071225 50 240 3.0 9.0 0.02 0.02 0.02 94 1008.4
20260510070718 48 200 1.0 7.0 0.01 0.01 0.01 95 1008.3
20260510070212 48 204 0.0 2.0 0.00 0.00 0.00 93 1008.3
20260510065201 47 210 1.0 3.0 0.00 0.00 0.00 93 1008.2
20260510064654 47 200 1.0 3.0 0.00 0.00 0.00 93 1008.2
20260510064149 47 156 0.0 1.0 0.00 0.00 0.00 92 1008.1
20260510063642 47 156 0.0 1.0 0.00 0.00 0.00 92 1008.0
20260510063136 47 156 0.0 1.0 0.00 0.00 0.00 92 1007.9
20260510062630 47 96 1.0 3.0 0.00 0.00 0.00 92 1007.9
20260510062125 47 134 1.0 3.0 0.00 0.00 0.00 92 1007.8
20260510061618 47 73 2.0 4.0 0.00 0.00 0.00 91 1007.8
20260510061112 48 145 2.0 4.0 0.00 0.00 0.00 91 1007.9
20260510060603 48 148 2.0 4.0 0.00 0.00 0.00 91 1008.0
20260510060057 48 51 1.0 5.0 0.00 0.00 0.00 92 1008.2
20260510055555 48 110 1.0 5.0 0.00 0.00 0.00 91 1008.2
20260510055059 48 42 1.0 2.0 0.00 0.00 0.00 91 1008.1
20260510054553 48 92 1.0 4.0 0.00 0.00 0.00 90 1008.1
20260510054050 48 357 1.0 4.0 0.00 0.00 0.00 89 1008.3
20260510053051 49 314 1.0 4.0 0.00 0.00 0.00 86 1008.1
20260510052548 50 148 1.0 4.0 0.00 0.00 0.00 86 1008.1
20260510052047 50 234 1.0 7.0 0.00 0.00 0.00 86 1008.2
20260510051545 50 224 2.0 7.0 0.00 0.00 0.00 86 1008.1
20260510051044 50 157 3.0 9.0 0.00 0.00 0.00 86 1008.2
20260510050545 50 193 4.0 9.0 0.00 0.00 0.00 87 1008.2
20260510044049 49 158 5.0 13.0 0.00 0.00 0.00 89 1008.3
20260510043548 49 186 7.0 16.0 0.00 0.00 0.00 89 1008.2
20260510042036 49 225 6.0 12.0 0.00 0.00 0.00 88 1008.0
20260510041530 49 181 6.0 12.0 0.00 0.00 0.00 88 1007.8
20260510041024 49 210 5.0 12.0 0.00 0.00 0.00 87 1007.8
20260510040518 49 181 3.0 7.0 0.00 0.00 0.00 88 1007.7
20260510040012 49 176 4.0 7.0 0.00 0.00 0.00 87 1007.9
20260510035007 50 207 7.0 14.0 0.00 0.00 0.00 87 1007.9
20260510034507 50 149 7.0 14.0 0.00 0.00 0.00 87 1008.1
20260510034004 50 160 8.0 15.0 0.00 0.00 0.00 87 1008.2
20260510033504 50 212 6.0 16.0 0.00 0.00 0.00 87 1008.3
20260510033004 50 194 5.0 16.0 0.00 0.00 0.00 87 1008.3
20260510032504 50 98 6.0 12.0 0.00 0.00 0.00 87 1008.3
20260510032003 50 269 7.0 15.0 0.00 0.00 0.00 87 1008.1
20260510031503 50 235 7.0 16.0 0.00 0.00 0.00 87 1008.0
20260510031000 50 220 8.0 16.0 0.00 0.00 0.00 87 1008.0
20260510030459 50 167 7.0 15.0 0.00 0.00 0.00 87 1008.3
20260510025959 50 174 8.0 16.0 0.00 0.00 0.00 87 1008.2
20260510024959 50 167 7.0 14.0 0.00 0.00 0.00 86 1008.2
20260510024000 50 188 7.0 13.0 0.00 0.00 0.00 87 1008.4
20260510023500 49 193 8.0 19.0 0.00 0.00 0.00 87 1008.3
20260510022959 49 230 7.0 19.0 0.00 0.00 0.00 87 1008.3
20260510021956 49 216 10.0 21.0 0.00 0.00 0.00 87 1008.6
20260510021455 49 149 10.0 21.0 0.00 0.00 0.00 87 1008.6
20260510020956 49 150 9.0 21.0 0.00 0.00 0.00 87 1008.7
20260510020455 49 191 8.0 21.0 0.00 0.00 0.00 88 1008.6
20260510015956 49 233 8.0 20.0 0.00 0.00 0.00 88 1008.6
20260510015455 49 180 10.0 20.0 0.00 0.00 0.00 88 1008.7
20260510013451 49 214 10.0 20.0 0.00 0.00 0.00 87 1008.7
20260510012951 49 141 11.0 22.0 0.00 0.00 0.00 87 1008.9
20260510012452 49 148 10.0 22.0 0.00 0.00 0.00 87 1008.9
20260510011951 49 169 8.0 16.0 0.00 0.00 0.00 87 1008.8
20260510011451 49 192 9.0 17.0 0.00 0.00 0.00 87 1008.8
20260510010952 49 204 9.0 17.0 0.00 0.00 0.00 86 1008.8
20260510010452 49 161 8.0 17.0 0.00 0.00 0.00 86 1008.9
20260510005951 49 156 9.0 18.0 0.00 0.00 0.00 86 1008.9
20260510004948 49 196 9.0 19.0 0.00 0.00 0.00 86 1009.0
20260510004447 49 204 10.0 19.0 0.00 0.00 0.00 86 1009.2
20260510003947 49 196 10.0 18.0 0.00 0.00 0.00 86 1009.0
20260510003448 49 191 9.0 21.0 0.00 0.00 0.00 86 1009.0
20260510002948 49 178 10.0 21.0 0.00 0.00 0.00 85 1009.0
20260510002447 49 170 10.0 18.0 0.00 0.00 0.00 85 1009.0
20260510001948 49 166 9.0 18.0 0.00 0.00 0.00 85 1008.9
20260510001447 49 193 9.0 18.0 0.00 0.00 0.00 85 1008.9
20260510000944 49 158 8.0 20.0 0.00 0.00 0.00 85 1008.9
20260510000444 49 143 7.0 20.0 0.00 0.00 0.00 85 1008.9
20260509235943 49 187 7.0 16.0 0.00 0.00 0.00 85 1008.8
20260509235443 49 221 8.0 19.0 0.00 0.00 0.00 84 1008.7
20260509234944 49 243 9.0 19.0 0.00 0.00 0.00 84 1008.8
20260509233943 49 167 10.0 20.0 0.00 0.00 0.00 84 1008.7
20260509233443 49 170 8.0 16.0 0.00 0.00 0.00 84 1008.8
20260509232439 50 165 7.0 15.0 0.00 0.00 0.00 83 1008.8
20260509231939 50 169 9.0 16.0 0.00 0.00 0.00 83 1008.8
20260509231439 50 225 10.0 16.0 0.00 0.00 0.00 83 1008.9
20260509230939 50 204 9.0 17.0 0.00 0.00 0.00 83 1008.7
20260509230440 50 172 9.0 17.0 0.00 0.00 0.00 83 1008.7
20260509225939 50 148 9.0 17.0 0.00 0.00 0.00 83 1008.8
20260509225439 50 209 9.0 17.0 0.00 0.00 0.00 83 1008.8
20260509224939 50 194 9.0 20.0 0.00 0.00 0.00 83 1008.8
20260509224439 50 165 9.0 20.0 0.00 0.00 0.00 83 1008.9
20260509223932 50 158 10.0 20.0 0.00 0.00 0.00 83 1008.9
20260509223427 50 187 10.0 20.0 0.00 0.00 0.00 82 1008.9
20260509222920 50 204 8.0 15.0 0.00 0.00 0.00 83 1009.0
20260509222415 50 175 9.0 16.0 0.00 0.00 0.00 82 1008.9
20260509221913 50 214 9.0 16.0 0.00 0.00 0.00 82 1009.0
20260509221413 50 127 9.0 18.0 0.00 0.00 0.00 82 1009.1
20260509220914 50 233 11.0 20.0 0.00 0.00 0.00 83 1009.1
20260509220415 50 195 10.0 21.0 0.00 0.00 0.00 83 1009.1
20260509215911 50 181 8.0 21.0 0.00 0.00 0.00 83 1009.1
20260509215409 50 171 9.0 21.0 0.00 0.00 0.00 83 1009.0
20260509214406 50 196 10.0 23.0 0.00 0.00 0.00 82 1009.1
20260509213905 50 145 9.0 23.0 0.00 0.00 0.00 82 1009.2
20260509212903 50 207 9.0 16.0 0.00 0.00 0.00 82 1009.3
20260509211903 50 208 8.0 17.0 0.00 0.00 0.00 82 1009.3
20260509211401 50 205 10.0 19.0 0.00 0.00 0.00 82 1009.3
20260509210901 50 204 11.0 19.0 0.00 0.00 0.00 81 1009.3
20260509210403 50 182 10.0 19.0 0.00 0.00 0.00 81 1009.5
20260509205902 50 179 9.0 18.0 0.00 0.00 0.00 81 1009.3
20260509205401 51 173 8.0 16.0 0.00 0.00 0.00 81 1009.5
20260509204858 51 167 8.0 18.0 0.00 0.00 0.00 80 1009.6
20260509204353 51 196 10.0 18.0 0.00 0.00 0.00 79 1009.5
20260509203847 51 200 10.0 18.0 0.00 0.00 0.00 78 1009.5
20260509203340 51 167 8.0 18.0 0.00 0.00 0.00 78 1009.5
20260509202834 51 203 6.0 13.0 0.00 0.00 0.00 77 1009.6
20260509201823 51 146 7.0 16.0 0.00 0.00 0.00 77 1009.7
20260509201317 51 233 9.0 17.0 0.00 0.00 0.00 76 1009.8
20260509200304 52 210 8.0 14.0 0.00 0.00 0.00 76 1009.8
20260509195759 52 149 8.0 13.0 0.00 0.00 0.00 75 1009.9
20260509195253 52 184 9.0 19.0 0.00 0.00 0.00 75 1009.8
20260509194746 52 183 9.0 19.0 0.00 0.00 0.00 75 1009.8
20260509194240 52 238 10.0 20.0 0.00 0.00 0.00 76 1009.9
20260509193735 52 243 11.0 20.0 0.00 0.00 0.00 76 1009.9
20260509193228 52 197 8.0 18.0 0.00 0.00 0.00 75 1009.8
20260509192722 52 172 8.0 23.0 0.00 0.00 0.00 76 1009.6
20260509192216 51 226 11.0 23.0 0.00 0.00 0.00 76 1009.8
20260509191710 51 198 11.0 21.0 0.00 0.00 0.00 77 1009.9
20260509191205 51 202 10.0 21.0 0.00 0.00 0.00 76 1009.9
20260509190153 51 150 11.0 21.0 0.00 0.00 0.00 75 1010.1
20260509185647 51 196 11.0 22.0 0.00 0.00 0.00 76 1010.2
20260509185140 51 180 12.0 22.0 0.00 0.00 0.00 75 1010.2
20260509184635 51 193 11.0 21.0 0.00 0.00 0.00 74 1010.3
20260509184128 52 191 11.0 20.0 0.00 0.00 0.00 72 1010.3
20260509183627 52 167 10.0 18.0 0.00 0.00 0.00 71 1010.2
20260509182126 54 196 11.0 22.0 0.00 0.00 0.00 67 1010.2
20260509181625 54 200 11.0 23.0 0.00 0.00 0.00 66 1010.2
20260509181128 55 179 10.0 23.0 0.00 0.00 0.00 63 1010.3
20260509180623 56 188 9.0 17.0 0.00 0.00 0.00 63 1010.1
20260509180121 56 222 8.0 14.0 0.00 0.00 0.00 61 1010.1
20260509175121 56 193 8.0 15.0 0.00 0.00 0.00 60 1010.0
20260509174621 56 172 9.0 17.0 0.00 0.00 0.00 57 1010.2
20260509174121 56 179 9.0 18.0 0.00 0.00 0.00 53 1010.1
20260509173619 56 167 9.0 18.0 0.00 0.00 0.00 52 1010.2
20260509173118 57 247 10.0 19.0 0.00 0.00 0.00 48 1010.1
20260509172621 57 162 9.0 19.0 0.00 0.00 0.00 48 1010.2
20260509172114 58 169 10.0 19.0 0.00 0.00 0.00 47 1010.1
20260509171608 57 214 10.0 19.0 0.00 0.00 0.00 44 1010.3
20260509171102 58 133 10.0 18.0 0.00 0.00 0.00 46 1010.3
20260509170557 57 168 11.0 18.0 0.00 0.00 0.00 43 1010.2
20260509170050 57 204 10.0 18.0 0.00 0.00 0.00 43 1010.3
20260509165544 58 176 9.0 16.0 0.00 0.00 0.00 44 1010.3
20260509165038 58 208 8.0 15.0 0.00 0.00 0.00 45 1010.4
20260509164532 58 210 8.0 16.0 0.00 0.00 0.00 42 1010.5
20260509164026 58 139 8.0 16.0 0.00 0.00 0.00 41 1010.6
20260509163520 58 204 9.0 15.0 0.00 0.00 0.00 38 1010.6
20260509162508 59 206 7.0 16.0 0.00 0.00 0.00 38 1010.6
20260509161457 59 143 5.0 9.0 0.00 0.00 0.00 39 1010.8
20260509160950 59 142 7.0 13.0 0.00 0.00 0.00 36 1010.8
20260509160444 59 149 9.0 14.0 0.00 0.00 0.00 37 1010.8
20260509155939 59 197 6.0 14.0 0.00 0.00 0.00 36 1010.8
20260509154926 59 233 7.0 11.0 0.00 0.00 0.00 36 1011.0
20260509154420 59 212 8.0 14.0 0.00 0.00 0.00 36 1011.1
20260509152903 58 223 7.0 14.0 0.00 0.00 0.00 41 1011.5
20260509152356 58 144 6.0 14.0 0.00 0.00 0.00 37 1011.6
20260509151850 58 167 5.0 12.0 0.00 0.00 0.00 38 1011.7
20260509150841 58 158 5.0 11.0 0.00 0.00 0.00 40 1011.7
20260509150341 57 160 5.0 11.0 0.00 0.00 0.00 38 1011.8
20260509145840 58 200 5.0 9.0 0.00 0.00 0.00 38 1011.7
20260509145341 58 169 5.0 9.0 0.00 0.00 0.00 40 1011.8
20260509144341 57 210 1.0 7.0 0.00 0.00 0.00 41 1011.9
20260509143842 57 43 1.0 4.0 0.00 0.00 0.00 45 1011.9
20260509143339 56 65 2.0 5.0 0.00 0.00 0.00 46 1011.9
20260509142838 56 145 2.0 5.0 0.00 0.00 0.00 46 1011.9
20260509142335 56 118 2.0 7.0 0.00 0.00 0.00 52 1012.0
20260509141833 55 84 2.0 7.0 0.00 0.00 0.00 48 1012.0
20260509141333 55 32 2.0 5.0 0.00 0.00 0.00 50 1011.9
20260509140833 54 44 3.0 5.0 0.00 0.00 0.00 53 1012.0
20260509140334 54 35 3.0 5.0 0.00 0.00 0.00 49 1012.0
20260509135829 53 38 2.0 5.0 0.00 0.00 0.00 55 1012.1
20260509135329 53 348 2.0 6.0 0.00 0.00 0.00 55 1012.0
20260509134829 53 10 2.0 6.0 0.00 0.00 0.00 56 1012.1
20260509134322 52 51 2.0 6.0 0.00 0.00 0.00 58 1012.0
20260509133816 52 41 2.0 6.0 0.00 0.00 0.00 60 1012.0
20260509133311 51 75 2.0 6.0 0.00 0.00 0.00 62 1012.1
20260509132258 50 17 2.0 6.0 0.00 0.00 0.00 63 1012.2
20260509131752 49 15 2.0 6.0 0.00 0.00 0.00 64 1012.2
20260509131253 48 60 2.0 6.0 0.00 0.00 0.00 66 1012.3
20260509130741 48 41 3.0 6.0 0.00 0.00 0.00 67 1012.4
20260509130235 47 23 3.0 6.0 0.00 0.00 0.00 67 1012.4
20260509125728 47 27 2.0 7.0 0.00 0.00 0.00 66 1012.5
20260509124716 46 27 1.0 3.0 0.00 0.00 0.00 69 1012.5
20260509124211 45 89 2.0 4.0 0.00 0.00 0.00 71 1012.6
20260509123704 45 50 2.0 4.0 0.00 0.00 0.00 71 1012.6
20260509123159 44 82 2.0 6.0 0.00 0.00 0.00 73 1012.6
20260509122653 43 56 2.0 6.0 0.00 0.00 0.00 73 1012.7
20260509121640 41 34 1.0 5.0 0.00 0.00 0.00 76 1012.7
20260509121134 41 29 0.0 2.0 0.00 0.00 0.00 76 1012.8
20260509120628 40 82 0.0 1.0 0.00 0.00 0.00 78 1012.8
20260509120123 40 87 0.0 1.0 0.00 0.00 0.00 81 1012.8
20260509115110 38 59 1.0 2.0 0.00 0.00 0.00 82 1012.8
20260509114058 37 65 1.0 3.0 0.00 0.00 0.00 83 1013.0
20260509113552 37 86 0.0 2.0 0.00 0.00 0.00 85 1013.0
20260509113047 36 67 0.0 2.0 0.00 0.00 0.00 86 1012.9
20260509112034 36 39 0.0 1.0 0.00 0.00 0.00 86 1013.0
20260509111528 35 164 0.0 0.0 0.00 0.00 0.00 88 1012.9